owner,sensor,date,latitude,longitude,vertical_datum,sea_water_temperature,qcFlag 
ENP,ioos.station.NOAA.NDBC:CANF1:1,2019-02-01T00:00:00Z,25.4220,-80.9420,1.0,18.7,11111222 
ENP,ioos.station.NOAA.NDBC:CANF1:1,2019-02-01T01:00:00Z,25.4220,-80.9420,1.0,18.63,11111222 
ENP,ioos.station.NOAA.NDBC:CANF1:1,2019-02-01T02:00:00Z,25.4220,-80.9420,1.0,18.6,11111222 
ENP,ioos.station.NOAA.NDBC:CANF1:1,2019-02-01T03:00:00Z,25.4220,-80.9420,1.0,18.58,11111222 
ENP,ioos.station.NOAA.NDBC:CANF1:1,2019-02-01T04:00:00Z,25.4220,-80.9420,1.0,18.63,11111222 
ENP,ioos.station.NOAA.NDBC:CANF1:1,2019-02-01T05:00:00Z,25.4220,-80.9420,1.0,18.7,11111222 
ENP,ioos.station.NOAA.NDBC:CANF1:1,2019-02-01T06:00:00Z,25.4220,-80.9420,1.0,18.79,11111222 
ENP,ioos.station.NOAA.NDBC:CANF1:1,2019-02-01T07:00:00Z,25.4220,-80.9420,1.0,18.83,11111222 
ENP,ioos.station.NOAA.NDBC:CANF1:1,2019-02-01T08:00:00Z,25.4220,-80.9420,1.0,18.83,11111222 
ENP,ioos.station.NOAA.NDBC:CANF1:1,2019-02-01T09:00:00Z,25.4220,-80.9420,1.0,18.73,11111222 
ENP,ioos.station.NOAA.NDBC:CANF1:1,2019-02-01T10:00:00Z,25.4220,-80.9420,1.0,18.66,11111222 
ENP,ioos.station.NOAA.NDBC:CANF1:1,2019-02-01T11:00:00Z,25.4220,-80.9420,1.0,18.56,11111222 
ENP,ioos.station.NOAA.NDBC:CANF1:1,2019-02-01T12:00:00Z,25.4220,-80.9420,1.0,18.5,11111222 
ENP,ioos.station.NOAA.NDBC:CANF1:1,2019-02-01T13:00:00Z,25.4220,-80.9420,1.0,18.48,11111222 
ENP,ioos.station.NOAA.NDBC:CANF1:1,2019-02-01T14:00:00Z,25.4220,-80.9420,1.0,18.5,11111222 
ENP,ioos.station.NOAA.NDBC:CANF1:1,2019-02-01T15:00:00Z,25.4220,-80.9420,1.0,18.57,11111222 
ENP,ioos.station.NOAA.NDBC:CANF1:1,2019-02-01T16:00:00Z,25.4220,-80.9420,1.0,18.79,11111222 
ENP,ioos.station.NOAA.NDBC:CANF1:1,2019-02-01T17:00:00Z,25.4220,-80.9420,1.0,19.03,11111222 
ENP,ioos.station.NOAA.NDBC:CANF1:1,2019-02-01T18:00:00Z,25.4220,-80.9420,1.0,19.29,11111222 
ENP,ioos.station.NOAA.NDBC:CANF1:1,2019-02-01T19:00:00Z,25.4220,-80.9420,1.0,19.67,11111222 
ENP,ioos.station.NOAA.NDBC:CANF1:1,2019-02-01T20:00:00Z,25.4220,-80.9420,1.0,19.8,11111222 
ENP,ioos.station.NOAA.NDBC:CANF1:1,2019-02-01T21:00:00Z,25.4220,-80.9420,1.0,19.6,11111222 
ENP,ioos.station.NOAA.NDBC:CANF1:1,2019-02-01T22:00:00Z,25.4220,-80.9420,1.0,19.51,11111222 
ENP,ioos.station.NOAA.NDBC:CANF1:1,2019-02-01T23:00:00Z,25.4220,-80.9420,1.0,19.88,11111222 
ENP,ioos.station.NOAA.NDBC:CANF1:1,2019-02-02T00:00:00Z,25.4220,-80.9420,1.0,20.05,11111222 
ENP,ioos.station.NOAA.NDBC:CANF1:1,2019-02-02T01:00:00Z,25.4220,-80.9420,1.0,20.13,11111222 
ENP,ioos.station.NOAA.NDBC:CANF1:1,2019-02-02T02:00:00Z,25.4220,-80.9420,1.0,20.07,11111222 
ENP,ioos.station.NOAA.NDBC:CANF1:1,2019-02-02T03:00:00Z,25.4220,-80.9420,1.0,20.01,11111222 
ENP,ioos.station.NOAA.NDBC:CANF1:1,2019-02-02T04:00:00Z,25.4220,-80.9420,1.0,19.98,11111222 
ENP,ioos.station.NOAA.NDBC:CANF1:1,2019-02-02T05:00:00Z,25.4220,-80.9420,1.0,20.0,11111222 
ENP,ioos.station.NOAA.NDBC:CANF1:1,2019-02-02T06:00:00Z,25.4220,-80.9420,1.0,20.0,11111222 
ENP,ioos.station.NOAA.NDBC:CANF1:1,2019-02-02T07:00:00Z,25.4220,-80.9420,1.0,19.94,11111222 
ENP,ioos.station.NOAA.NDBC:CANF1:1,2019-02-02T08:00:00Z,25.4220,-80.9420,1.0,19.9,11111222 
ENP,ioos.station.NOAA.NDBC:CANF1:1,2019-02-02T09:00:00Z,25.4220,-80.9420,1.0,19.93,11111222 
ENP,ioos.station.NOAA.NDBC:CANF1:1,2019-02-02T14:00:00Z,25.4220,-80.9420,1.0,19.8,11111222 
ENP,ioos.station.NOAA.NDBC:CANF1:1,2019-02-02T15:00:00Z,25.4220,-80.9420,1.0,19.9,11111222 
ENP,ioos.station.NOAA.NDBC:CANF1:1,2019-02-02T16:00:00Z,25.4220,-80.9420,1.0,20.15,11111222 
ENP,ioos.station.NOAA.NDBC:CANF1:1,2019-02-02T17:00:00Z,25.4220,-80.9420,1.0,20.46,11111222 
ENP,ioos.station.NOAA.NDBC:CANF1:1,2019-02-02T18:00:00Z,25.4220,-80.9420,1.0,20.7,11111222 
ENP,ioos.station.NOAA.NDBC:CANF1:1,2019-02-02T19:00:00Z,25.4220,-80.9420,1.0,21.1,11111222 
ENP,ioos.station.NOAA.NDBC:CANF1:1,2019-02-02T20:00:00Z,25.4220,-80.9420,1.0,21.33,11111222 
ENP,ioos.station.NOAA.NDBC:CANF1:1,2019-02-02T21:00:00Z,25.4220,-80.9420,1.0,21.27,11111222 
ENP,ioos.station.NOAA.NDBC:CANF1:1,2019-02-02T22:00:00Z,25.4220,-80.9420,1.0,20.91,11111222 
ENP,ioos.station.NOAA.NDBC:CANF1:1,2019-02-02T23:00:00Z,25.4220,-80.9420,1.0,21.34,11111222 
ENP,ioos.station.NOAA.NDBC:CANF1:1,2019-02-03T00:00:00Z,25.4220,-80.9420,1.0,21.49,11111222 
ENP,ioos.station.NOAA.NDBC:CANF1:1,2019-02-03T01:00:00Z,25.4220,-80.9420,1.0,21.69,11111222 
ENP,ioos.station.NOAA.NDBC:CANF1:1,2019-02-03T02:00:00Z,25.4220,-80.9420,1.0,21.66,11111222 
ENP,ioos.station.NOAA.NDBC:CANF1:1,2019-02-03T03:00:00Z,25.4220,-80.9420,1.0,21.52,11111222 
ENP,ioos.station.NOAA.NDBC:CANF1:1,2019-02-03T04:00:00Z,25.4220,-80.9420,1.0,21.39,11111222 
ENP,ioos.station.NOAA.NDBC:CANF1:1,2019-02-03T05:00:00Z,25.4220,-80.9420,1.0,21.3,11111222 
ENP,ioos.station.NOAA.NDBC:CANF1:1,2019-02-03T06:00:00Z,25.4220,-80.9420,1.0,21.33,11111222 
ENP,ioos.station.NOAA.NDBC:CANF1:1,2019-02-03T07:00:00Z,25.4220,-80.9420,1.0,21.31,11111222 
ENP,ioos.station.NOAA.NDBC:CANF1:1,2019-02-03T08:00:00Z,25.4220,-80.9420,1.0,21.32,11111222 
ENP,ioos.station.NOAA.NDBC:CANF1:1,2019-02-03T09:00:00Z,25.4220,-80.9420,1.0,21.28,11111222 
ENP,ioos.station.NOAA.NDBC:CANF1:1,2019-02-03T10:00:00Z,25.4220,-80.9420,1.0,21.22,11111222 
ENP,ioos.station.NOAA.NDBC:CANF1:1,2019-02-03T11:00:00Z,25.4220,-80.9420,1.0,21.2,11111222 
ENP,ioos.station.NOAA.NDBC:CANF1:1,2019-02-03T12:00:00Z,25.4220,-80.9420,1.0,21.15,11111222 
ENP,ioos.station.NOAA.NDBC:CANF1:1,2019-02-03T13:00:00Z,25.4220,-80.9420,1.0,21.09,11111222 
ENP,ioos.station.NOAA.NDBC:CANF1:1,2019-02-03T14:00:00Z,25.4220,-80.9420,1.0,21.01,11111222 
ENP,ioos.station.NOAA.NDBC:CANF1:1,2019-02-03T15:00:00Z,25.4220,-80.9420,1.0,21.0,11111222 
ENP,ioos.station.NOAA.NDBC:CANF1:1,2019-02-03T16:00:00Z,25.4220,-80.9420,1.0,21.13,11111222 
ENP,ioos.station.NOAA.NDBC:CANF1:1,2019-02-03T17:00:00Z,25.4220,-80.9420,1.0,21.4,11111222 
ENP,ioos.station.NOAA.NDBC:CANF1:1,2019-02-03T18:00:00Z,25.4220,-80.9420,1.0,21.67,11111222 
ENP,ioos.station.NOAA.NDBC:CANF1:1,2019-02-03T19:00:00Z,25.4220,-80.9420,1.0,21.85,11111222 
ENP,ioos.station.NOAA.NDBC:CANF1:1,2019-02-03T20:00:00Z,25.4220,-80.9420,1.0,22.36,11111222 
ENP,ioos.station.NOAA.NDBC:CANF1:1,2019-02-03T21:00:00Z,25.4220,-80.9420,1.0,22.44,11111222 
ENP,ioos.station.NOAA.NDBC:CANF1:1,2019-02-03T22:00:00Z,25.4220,-80.9420,1.0,22.37,11111222 
ENP,ioos.station.NOAA.NDBC:CANF1:1,2019-02-03T23:00:00Z,25.4220,-80.9420,1.0,22.02,11111222 
ENP,ioos.station.NOAA.NDBC:CANF1:1,2019-02-04T00:00:00Z,25.4220,-80.9420,1.0,22.13,11111222 
ENP,ioos.station.NOAA.NDBC:CANF1:1,2019-02-04T01:00:00Z,25.4220,-80.9420,1.0,22.31,11111222 
ENP,ioos.station.NOAA.NDBC:CANF1:1,2019-02-04T02:00:00Z,25.4220,-80.9420,1.0,22.38,11111222 
ENP,ioos.station.NOAA.NDBC:CANF1:1,2019-02-04T03:00:00Z,25.4220,-80.9420,1.0,22.32,11111222 
ENP,ioos.station.NOAA.NDBC:CANF1:1,2019-02-04T04:00:00Z,25.4220,-80.9420,1.0,22.19,11111222 
ENP,ioos.station.NOAA.NDBC:CANF1:1,2019-02-04T05:00:00Z,25.4220,-80.9420,1.0,22.1,11111222 
ENP,ioos.station.NOAA.NDBC:CANF1:1,2019-02-04T06:00:00Z,25.4220,-80.9420,1.0,22.0,11111222 
ENP,ioos.station.NOAA.NDBC:CANF1:1,2019-02-04T07:00:00Z,25.4220,-80.9420,1.0,21.97,11111222 
ENP,ioos.station.NOAA.NDBC:CANF1:1,2019-02-04T08:00:00Z,25.4220,-80.9420,1.0,21.95,11111222 
ENP,ioos.station.NOAA.NDBC:CANF1:1,2019-02-04T09:00:00Z,25.4220,-80.9420,1.0,21.95,11111222 
ENP,ioos.station.NOAA.NDBC:CANF1:1,2019-02-04T10:00:00Z,25.4220,-80.9420,1.0,21.91,11111222 
ENP,ioos.station.NOAA.NDBC:CANF1:1,2019-02-04T11:00:00Z,25.4220,-80.9420,1.0,21.86,11111222 
ENP,ioos.station.NOAA.NDBC:CANF1:1,2019-02-04T12:00:00Z,25.4220,-80.9420,1.0,21.83,11111222 
ENP,ioos.station.NOAA.NDBC:CANF1:1,2019-02-04T13:00:00Z,25.4220,-80.9420,1.0,21.81,11111222 
ENP,ioos.station.NOAA.NDBC:CANF1:1,2019-02-04T14:00:00Z,25.4220,-80.9420,1.0,21.79,11111222 
ENP,ioos.station.NOAA.NDBC:CANF1:1,2019-02-04T15:00:00Z,25.4220,-80.9420,1.0,21.76,11111222 
ENP,ioos.station.NOAA.NDBC:CANF1:1,2019-02-04T16:00:00Z,25.4220,-80.9420,1.0,21.81,11111222 
ENP,ioos.station.NOAA.NDBC:CANF1:1,2019-02-04T21:00:00Z,25.4220,-80.9420,1.0,23.0,11111222 
ENP,ioos.station.NOAA.NDBC:CANF1:1,2019-02-04T22:00:00Z,25.4220,-80.9420,1.0,23.0,11111222 
ENP,ioos.station.NOAA.NDBC:CANF1:1,2019-02-04T23:00:00Z,25.4220,-80.9420,1.0,22.78,11111222 
ENP,ioos.station.NOAA.NDBC:CANF1:1,2019-02-05T00:00:00Z,25.4220,-80.9420,1.0,22.58,11111222 
ENP,ioos.station.NOAA.NDBC:CANF1:1,2019-02-05T01:00:00Z,25.4220,-80.9420,1.0,22.71,11111222 
ENP,ioos.station.NOAA.NDBC:CANF1:1,2019-02-05T02:00:00Z,25.4220,-80.9420,1.0,22.86,11111222 
ENP,ioos.station.NOAA.NDBC:CANF1:1,2019-02-05T03:00:00Z,25.4220,-80.9420,1.0,22.91,11111222 
ENP,ioos.station.NOAA.NDBC:CANF1:1,2019-02-05T04:00:00Z,25.4220,-80.9420,1.0,22.85,11111222 
ENP,ioos.station.NOAA.NDBC:CANF1:1,2019-02-05T05:00:00Z,25.4220,-80.9420,1.0,22.78,11111222 
ENP,ioos.station.NOAA.NDBC:CANF1:1,2019-02-05T06:00:00Z,25.4220,-80.9420,1.0,22.7,11111222 
ENP,ioos.station.NOAA.NDBC:CANF1:1,2019-02-05T07:00:00Z,25.4220,-80.9420,1.0,22.61,11111222 
ENP,ioos.station.NOAA.NDBC:CANF1:1,2019-02-05T08:00:00Z,25.4220,-80.9420,1.0,22.54,11111222 
ENP,ioos.station.NOAA.NDBC:CANF1:1,2019-02-05T09:00:00Z,25.4220,-80.9420,1.0,22.48,11111222 
ENP,ioos.station.NOAA.NDBC:CANF1:1,2019-02-05T10:00:00Z,25.4220,-80.9420,1.0,22.41,11111222 
ENP,ioos.station.NOAA.NDBC:CANF1:1,2019-02-05T13:00:00Z,25.4220,-80.9420,1.0,22.3,11111222 
ENP,ioos.station.NOAA.NDBC:CANF1:1,2019-02-05T14:00:00Z,25.4220,-80.9420,1.0,22.2,11111222 
ENP,ioos.station.NOAA.NDBC:CANF1:1,2019-02-05T15:00:00Z,25.4220,-80.9420,1.0,22.23,11111222 
ENP,ioos.station.NOAA.NDBC:CANF1:1,2019-02-05T16:00:00Z,25.4220,-80.9420,1.0,22.34,11111222 
ENP,ioos.station.NOAA.NDBC:CANF1:1,2019-02-05T17:00:00Z,25.4220,-80.9420,1.0,22.53,11111222 
ENP,ioos.station.NOAA.NDBC:CANF1:1,2019-02-05T18:00:00Z,25.4220,-80.9420,1.0,22.79,11111222 
ENP,ioos.station.NOAA.NDBC:CANF1:1,2019-02-05T19:00:00Z,25.4220,-80.9420,1.0,23.05,11111222 
ENP,ioos.station.NOAA.NDBC:CANF1:1,2019-02-05T20:00:00Z,25.4220,-80.9420,1.0,23.21,11111222 
ENP,ioos.station.NOAA.NDBC:CANF1:1,2019-02-05T21:00:00Z,25.4220,-80.9420,1.0,23.47,11111222 
ENP,ioos.station.NOAA.NDBC:CANF1:1,2019-02-05T22:00:00Z,25.4220,-80.9420,1.0,23.56,11111222 
ENP,ioos.station.NOAA.NDBC:CANF1:1,2019-02-05T23:00:00Z,25.4220,-80.9420,1.0,23.51,11111222 
ENP,ioos.station.NOAA.NDBC:CANF1:1,2019-02-06T00:00:00Z,25.4220,-80.9420,1.0,23.22,11111222 
ENP,ioos.station.NOAA.NDBC:CANF1:1,2019-02-06T01:00:00Z,25.4220,-80.9420,1.0,23.27,11111222 
ENP,ioos.station.NOAA.NDBC:CANF1:1,2019-02-06T02:00:00Z,25.4220,-80.9420,1.0,23.41,11111222 
ENP,ioos.station.NOAA.NDBC:CANF1:1,2019-02-06T03:00:00Z,25.4220,-80.9420,1.0,23.47,11111222 
ENP,ioos.station.NOAA.NDBC:CANF1:1,2019-02-06T04:00:00Z,25.4220,-80.9420,1.0,23.38,11111222 
ENP,ioos.station.NOAA.NDBC:CANF1:1,2019-02-06T05:00:00Z,25.4220,-80.9420,1.0,23.2,11111222 
ENP,ioos.station.NOAA.NDBC:CANF1:1,2019-02-06T06:00:00Z,25.4220,-80.9420,1.0,23.13,11111222 
ENP,ioos.station.NOAA.NDBC:CANF1:1,2019-02-06T07:00:00Z,25.4220,-80.9420,1.0,23.05,11111222 
ENP,ioos.station.NOAA.NDBC:CANF1:1,2019-02-06T08:00:00Z,25.4220,-80.9420,1.0,22.94,11111222 
ENP,ioos.station.NOAA.NDBC:CANF1:1,2019-02-06T09:00:00Z,25.4220,-80.9420,1.0,22.89,11111222 
ENP,ioos.station.NOAA.NDBC:CANF1:1,2019-02-06T10:00:00Z,25.4220,-80.9420,1.0,22.8,11111222 
ENP,ioos.station.NOAA.NDBC:CANF1:1,2019-02-06T11:00:00Z,25.4220,-80.9420,1.0,22.75,11111222 
ENP,ioos.station.NOAA.NDBC:CANF1:1,2019-02-06T13:00:00Z,25.4220,-80.9420,1.0,22.6,11111222 
ENP,ioos.station.NOAA.NDBC:CANF1:1,2019-02-06T14:00:00Z,25.4220,-80.9420,1.0,22.6,11111222 
ENP,ioos.station.NOAA.NDBC:CANF1:1,2019-02-06T15:00:00Z,25.4220,-80.9420,1.0,22.54,11111222 
ENP,ioos.station.NOAA.NDBC:CANF1:1,2019-02-06T16:00:00Z,25.4220,-80.9420,1.0,22.64,11111222 
ENP,ioos.station.NOAA.NDBC:CANF1:1,2019-02-06T17:00:00Z,25.4220,-80.9420,1.0,22.85,11111222 
ENP,ioos.station.NOAA.NDBC:CANF1:1,2019-02-06T18:00:00Z,25.4220,-80.9420,1.0,23.02,11111222 
ENP,ioos.station.NOAA.NDBC:CANF1:1,2019-02-06T19:00:00Z,25.4220,-80.9420,1.0,23.25,11111222 
ENP,ioos.station.NOAA.NDBC:CANF1:1,2019-02-06T20:00:00Z,25.4220,-80.9420,1.0,23.38,11111222 
ENP,ioos.station.NOAA.NDBC:CANF1:1,2019-02-06T21:00:00Z,25.4220,-80.9420,1.0,23.5,11111222 
ENP,ioos.station.NOAA.NDBC:CANF1:1,2019-02-06T22:00:00Z,25.4220,-80.9420,1.0,23.74,11111222 
ENP,ioos.station.NOAA.NDBC:CANF1:1,2019-02-06T23:00:00Z,25.4220,-80.9420,1.0,23.69,11111222 
ENP,ioos.station.NOAA.NDBC:CANF1:1,2019-02-07T00:00:00Z,25.4220,-80.9420,1.0,23.43,11111222 
ENP,ioos.station.NOAA.NDBC:CANF1:1,2019-02-07T01:00:00Z,25.4220,-80.9420,1.0,23.4,11111222 
ENP,ioos.station.NOAA.NDBC:CANF1:1,2019-02-07T02:00:00Z,25.4220,-80.9420,1.0,23.46,11111222 
ENP,ioos.station.NOAA.NDBC:CANF1:1,2019-02-07T03:00:00Z,25.4220,-80.9420,1.0,23.45,11111222 
ENP,ioos.station.NOAA.NDBC:CANF1:1,2019-02-07T04:00:00Z,25.4220,-80.9420,1.0,23.3,11111222 
ENP,ioos.station.NOAA.NDBC:CANF1:1,2019-02-07T05:00:00Z,25.4220,-80.9420,1.0,23.16,11111222 
ENP,ioos.station.NOAA.NDBC:CANF1:1,2019-02-07T06:00:00Z,25.4220,-80.9420,1.0,23.0,11111222 
ENP,ioos.station.NOAA.NDBC:CANF1:1,2019-02-07T07:00:00Z,25.4220,-80.9420,1.0,22.92,11111222 
ENP,ioos.station.NOAA.NDBC:CANF1:1,2019-02-07T08:00:00Z,25.4220,-80.9420,1.0,22.8,11111222 
ENP,ioos.station.NOAA.NDBC:CANF1:1,2019-02-07T09:00:00Z,25.4220,-80.9420,1.0,22.7,11111222 
ENP,ioos.station.NOAA.NDBC:CANF1:1,2019-02-07T10:00:00Z,25.4220,-80.9420,1.0,22.7,11111222 
ENP,ioos.station.NOAA.NDBC:CANF1:1,2019-02-07T11:00:00Z,25.4220,-80.9420,1.0,22.62,11111222 
ENP,ioos.station.NOAA.NDBC:CANF1:1,2019-02-07T13:00:00Z,25.4220,-80.9420,1.0,22.5,11111222 
ENP,ioos.station.NOAA.NDBC:CANF1:1,2019-02-07T14:00:00Z,25.4220,-80.9420,1.0,22.43,11111222 
ENP,ioos.station.NOAA.NDBC:CANF1:1,2019-02-08T01:00:00Z,25.4220,-80.9420,1.0,23.2,11111222 
ENP,ioos.station.NOAA.NDBC:CANF1:1,2019-02-08T02:00:00Z,25.4220,-80.9420,1.0,23.2,11111222 
ENP,ioos.station.NOAA.NDBC:CANF1:1,2019-02-08T03:00:00Z,25.4220,-80.9420,1.0,23.17,11111222 
ENP,ioos.station.NOAA.NDBC:CANF1:1,2019-02-08T04:00:00Z,25.4220,-80.9420,1.0,23.1,11111222 
ENP,ioos.station.NOAA.NDBC:CANF1:1,2019-02-08T05:00:00Z,25.4220,-80.9420,1.0,22.99,11111222 
ENP,ioos.station.NOAA.NDBC:CANF1:1,2019-02-08T06:00:00Z,25.4220,-80.9420,1.0,22.9,11111222 
ENP,ioos.station.NOAA.NDBC:CANF1:1,2019-02-08T07:00:00Z,25.4220,-80.9420,1.0,22.78,11111222 
ENP,ioos.station.NOAA.NDBC:CANF1:1,2019-02-08T08:00:00Z,25.4220,-80.9420,1.0,22.69,11111222 
ENP,ioos.station.NOAA.NDBC:CANF1:1,2019-02-08T09:00:00Z,25.4220,-80.9420,1.0,22.55,11111222 
ENP,ioos.station.NOAA.NDBC:CANF1:1,2019-02-08T10:00:00Z,25.4220,-80.9420,1.0,22.5,11111222 
ENP,ioos.station.NOAA.NDBC:CANF1:1,2019-02-08T11:00:00Z,25.4220,-80.9420,1.0,22.45,11111222 
ENP,ioos.station.NOAA.NDBC:CANF1:1,2019-02-08T12:00:00Z,25.4220,-80.9420,1.0,22.4,11111222 
ENP,ioos.station.NOAA.NDBC:CANF1:1,2019-02-08T13:00:00Z,25.4220,-80.9420,1.0,22.34,11111222 
ENP,ioos.station.NOAA.NDBC:CANF1:1,2019-02-08T14:00:00Z,25.4220,-80.9420,1.0,22.3,11111222 
ENP,ioos.station.NOAA.NDBC:CANF1:1,2019-02-08T15:00:00Z,25.4220,-80.9420,1.0,22.27,11111222 
ENP,ioos.station.NOAA.NDBC:CANF1:1,2019-02-08T16:00:00Z,25.4220,-80.9420,1.0,22.4,11111222 
ENP,ioos.station.NOAA.NDBC:CANF1:1,2019-02-08T17:00:00Z,25.4220,-80.9420,1.0,22.56,11111222 
ENP,ioos.station.NOAA.NDBC:CANF1:1,2019-02-08T18:00:00Z,25.4220,-80.9420,1.0,22.67,11111222 
ENP,ioos.station.NOAA.NDBC:CANF1:1,2019-02-08T19:00:00Z,25.4220,-80.9420,1.0,22.75,11111222 
ENP,ioos.station.NOAA.NDBC:CANF1:1,2019-02-08T20:00:00Z,25.4220,-80.9420,1.0,22.88,11111222 
ENP,ioos.station.NOAA.NDBC:CANF1:1,2019-02-08T21:00:00Z,25.4220,-80.9420,1.0,22.93,11111222 
ENP,ioos.station.NOAA.NDBC:CANF1:1,2019-02-08T22:00:00Z,25.4220,-80.9420,1.0,23.1,11111222 
ENP,ioos.station.NOAA.NDBC:CANF1:1,2019-02-08T23:00:00Z,25.4220,-80.9420,1.0,23.2,11111222 
ENP,ioos.station.NOAA.NDBC:CANF1:1,2019-02-09T00:00:00Z,25.4220,-80.9420,1.0,23.12,11111222 
ENP,ioos.station.NOAA.NDBC:CANF1:1,2019-02-09T01:00:00Z,25.4220,-80.9420,1.0,23.04,11111222 
ENP,ioos.station.NOAA.NDBC:CANF1:1,2019-02-09T02:00:00Z,25.4220,-80.9420,1.0,22.9,11111222 
ENP,ioos.station.NOAA.NDBC:CANF1:1,2019-02-09T03:00:00Z,25.4220,-80.9420,1.0,22.89,11111222 
ENP,ioos.station.NOAA.NDBC:CANF1:1,2019-02-09T04:00:00Z,25.4220,-80.9420,1.0,22.83,11111222 
ENP,ioos.station.NOAA.NDBC:CANF1:1,2019-02-09T05:00:00Z,25.4220,-80.9420,1.0,22.74,11111222 
ENP,ioos.station.NOAA.NDBC:CANF1:1,2019-02-09T06:00:00Z,25.4220,-80.9420,1.0,22.65,11111222 
ENP,ioos.station.NOAA.NDBC:CANF1:1,2019-02-09T07:00:00Z,25.4220,-80.9420,1.0,22.52,11111222 
ENP,ioos.station.NOAA.NDBC:CANF1:1,2019-02-09T08:00:00Z,25.4220,-80.9420,1.0,22.41,11111222 
ENP,ioos.station.NOAA.NDBC:CANF1:1,2019-02-09T09:00:00Z,25.4220,-80.9420,1.0,22.35,11111222 
ENP,ioos.station.NOAA.NDBC:CANF1:1,2019-02-09T10:00:00Z,25.4220,-80.9420,1.0,22.24,11111222 
ENP,ioos.station.NOAA.NDBC:CANF1:1,2019-02-09T11:00:00Z,25.4220,-80.9420,1.0,22.2,11111222 
ENP,ioos.station.NOAA.NDBC:CANF1:1,2019-02-09T12:00:00Z,25.4220,-80.9420,1.0,22.18,11111222 
ENP,ioos.station.NOAA.NDBC:CANF1:1,2019-02-09T13:00:00Z,25.4220,-80.9420,1.0,22.2,11111222 
ENP,ioos.station.NOAA.NDBC:CANF1:1,2019-02-09T14:00:00Z,25.4220,-80.9420,1.0,22.1,11111222 
ENP,ioos.station.NOAA.NDBC:CANF1:1,2019-02-09T15:00:00Z,25.4220,-80.9420,1.0,22.06,11111222 
ENP,ioos.station.NOAA.NDBC:CANF1:1,2019-02-09T16:00:00Z,25.4220,-80.9420,1.0,22.16,11111222 
ENP,ioos.station.NOAA.NDBC:CANF1:1,2019-02-09T17:00:00Z,25.4220,-80.9420,1.0,22.27,11111222 
ENP,ioos.station.NOAA.NDBC:CANF1:1,2019-02-09T18:00:00Z,25.4220,-80.9420,1.0,22.35,11111222 
ENP,ioos.station.NOAA.NDBC:CANF1:1,2019-02-09T19:00:00Z,25.4220,-80.9420,1.0,22.49,11111222 
ENP,ioos.station.NOAA.NDBC:CANF1:1,2019-02-09T20:00:00Z,25.4220,-80.9420,1.0,22.56,11111222 
ENP,ioos.station.NOAA.NDBC:CANF1:1,2019-02-09T21:00:00Z,25.4220,-80.9420,1.0,22.67,11111222 
ENP,ioos.station.NOAA.NDBC:CANF1:1,2019-02-09T22:00:00Z,25.4220,-80.9420,1.0,22.71,11111222 
ENP,ioos.station.NOAA.NDBC:CANF1:1,2019-02-09T23:00:00Z,25.4220,-80.9420,1.0,22.88,11111222 
ENP,ioos.station.NOAA.NDBC:CANF1:1,2019-02-10T00:00:00Z,25.4220,-80.9420,1.0,22.94,11111222 
ENP,ioos.station.NOAA.NDBC:CANF1:1,2019-02-10T01:00:00Z,25.4220,-80.9420,1.0,22.89,11111222 
ENP,ioos.station.NOAA.NDBC:CANF1:1,2019-02-10T02:00:00Z,25.4220,-80.9420,1.0,22.81,11111222 
ENP,ioos.station.NOAA.NDBC:CANF1:1,2019-02-10T03:00:00Z,25.4220,-80.9420,1.0,22.72,11111222 
ENP,ioos.station.NOAA.NDBC:CANF1:1,2019-02-10T04:00:00Z,25.4220,-80.9420,1.0,22.61,11111222 
ENP,ioos.station.NOAA.NDBC:CANF1:1,2019-02-10T05:00:00Z,25.4220,-80.9420,1.0,22.5,11111222 
ENP,ioos.station.NOAA.NDBC:CANF1:1,2019-02-10T06:00:00Z,25.4220,-80.9420,1.0,22.39,11111222 
ENP,ioos.station.NOAA.NDBC:CANF1:1,2019-02-10T07:00:00Z,25.4220,-80.9420,1.0,22.29,11111222 
ENP,ioos.station.NOAA.NDBC:CANF1:1,2019-02-10T08:00:00Z,25.4220,-80.9420,1.0,22.15,11111222 
ENP,ioos.station.NOAA.NDBC:CANF1:1,2019-02-10T09:00:00Z,25.4220,-80.9420,1.0,22.04,11111222 
ENP,ioos.station.NOAA.NDBC:CANF1:1,2019-02-10T10:00:00Z,25.4220,-80.9420,1.0,22.0,11111222 
ENP,ioos.station.NOAA.NDBC:CANF1:1,2019-02-10T11:00:00Z,25.4220,-80.9420,1.0,21.87,11111222 
ENP,ioos.station.NOAA.NDBC:CANF1:1,2019-02-10T12:00:00Z,25.4220,-80.9420,1.0,21.9,11111222 
ENP,ioos.station.NOAA.NDBC:CANF1:1,2019-02-10T13:00:00Z,25.4220,-80.9420,1.0,21.93,11111222 
ENP,ioos.station.NOAA.NDBC:CANF1:1,2019-02-10T14:00:00Z,25.4220,-80.9420,1.0,21.97,11111222 
ENP,ioos.station.NOAA.NDBC:CANF1:1,2019-02-10T15:00:00Z,25.4220,-80.9420,1.0,21.98,11111222 
ENP,ioos.station.NOAA.NDBC:CANF1:1,2019-02-10T16:00:00Z,25.4220,-80.9420,1.0,22.03,11111222 
ENP,ioos.station.NOAA.NDBC:CANF1:1,2019-02-10T17:00:00Z,25.4220,-80.9420,1.0,22.11,11111222 
ENP,ioos.station.NOAA.NDBC:CANF1:1,2019-02-10T18:00:00Z,25.4220,-80.9420,1.0,22.2,11111222 
ENP,ioos.station.NOAA.NDBC:CANF1:1,2019-02-10T19:00:00Z,25.4220,-80.9420,1.0,22.3,11111222 
ENP,ioos.station.NOAA.NDBC:CANF1:1,2019-02-10T20:00:00Z,25.4220,-80.9420,1.0,22.4,11111222 
ENP,ioos.station.NOAA.NDBC:CANF1:1,2019-02-10T21:00:00Z,25.4220,-80.9420,1.0,22.47,11111222 
ENP,ioos.station.NOAA.NDBC:CANF1:1,2019-02-10T22:00:00Z,25.4220,-80.9420,1.0,22.52,11111222 
ENP,ioos.station.NOAA.NDBC:CANF1:1,2019-02-10T23:00:00Z,25.4220,-80.9420,1.0,22.62,11111222 
ENP,ioos.station.NOAA.NDBC:CANF1:1,2019-02-11T00:00:00Z,25.4220,-80.9420,1.0,22.69,11111222 
ENP,ioos.station.NOAA.NDBC:CANF1:1,2019-02-11T01:00:00Z,25.4220,-80.9420,1.0,22.63,11111222 
ENP,ioos.station.NOAA.NDBC:CANF1:1,2019-02-11T02:00:00Z,25.4220,-80.9420,1.0,22.6,11111222 
ENP,ioos.station.NOAA.NDBC:CANF1:1,2019-02-11T03:00:00Z,25.4220,-80.9420,1.0,22.5,11111222 
ENP,ioos.station.NOAA.NDBC:CANF1:1,2019-02-11T04:00:00Z,25.4220,-80.9420,1.0,22.42,11111222 
ENP,ioos.station.NOAA.NDBC:CANF1:1,2019-02-11T05:00:00Z,25.4220,-80.9420,1.0,22.38,11111222 
ENP,ioos.station.NOAA.NDBC:CANF1:1,2019-02-11T06:00:00Z,25.4220,-80.9420,1.0,22.33,11111222 
ENP,ioos.station.NOAA.NDBC:CANF1:1,2019-02-11T07:00:00Z,25.4220,-80.9420,1.0,22.25,11111222 
ENP,ioos.station.NOAA.NDBC:CANF1:1,2019-02-11T08:00:00Z,25.4220,-80.9420,1.0,22.18,11111222 
ENP,ioos.station.NOAA.NDBC:CANF1:1,2019-02-11T09:00:00Z,25.4220,-80.9420,1.0,22.12,11111222 
ENP,ioos.station.NOAA.NDBC:CANF1:1,2019-02-11T10:00:00Z,25.4220,-80.9420,1.0,22.07,11111222 
ENP,ioos.station.NOAA.NDBC:CANF1:1,2019-02-11T11:00:00Z,25.4220,-80.9420,1.0,21.98,11111222 
ENP,ioos.station.NOAA.NDBC:CANF1:1,2019-02-11T12:00:00Z,25.4220,-80.9420,1.0,21.94,11111222 
ENP,ioos.station.NOAA.NDBC:CANF1:1,2019-02-11T13:00:00Z,25.4220,-80.9420,1.0,22.0,11111222 
ENP,ioos.station.NOAA.NDBC:CANF1:1,2019-02-11T14:00:00Z,25.4220,-80.9420,1.0,22.0,11111222 
ENP,ioos.station.NOAA.NDBC:CANF1:1,2019-02-11T15:00:00Z,25.4220,-80.9420,1.0,22.04,11111222 
ENP,ioos.station.NOAA.NDBC:CANF1:1,2019-02-11T16:00:00Z,25.4220,-80.9420,1.0,22.22,11111222 
ENP,ioos.station.NOAA.NDBC:CANF1:1,2019-02-11T17:00:00Z,25.4220,-80.9420,1.0,22.31,11111222 
ENP,ioos.station.NOAA.NDBC:CANF1:1,2019-02-11T18:00:00Z,25.4220,-80.9420,1.0,22.45,11111222 
ENP,ioos.station.NOAA.NDBC:CANF1:1,2019-02-11T19:00:00Z,25.4220,-80.9420,1.0,22.57,11111222 
ENP,ioos.station.NOAA.NDBC:CANF1:1,2019-02-11T20:00:00Z,25.4220,-80.9420,1.0,22.66,11111222 
ENP,ioos.station.NOAA.NDBC:CANF1:1,2019-02-11T21:00:00Z,25.4220,-80.9420,1.0,22.82,11111222 
ENP,ioos.station.NOAA.NDBC:CANF1:1,2019-02-11T22:00:00Z,25.4220,-80.9420,1.0,22.88,11111222 
ENP,ioos.station.NOAA.NDBC:CANF1:1,2019-02-11T23:00:00Z,25.4220,-80.9420,1.0,23.0,11111222 
ENP,ioos.station.NOAA.NDBC:CANF1:1,2019-02-12T00:00:00Z,25.4220,-80.9420,1.0,23.12,11111222 
ENP,ioos.station.NOAA.NDBC:CANF1:1,2019-02-12T01:00:00Z,25.4220,-80.9420,1.0,23.08,11111222 
ENP,ioos.station.NOAA.NDBC:CANF1:1,2019-02-12T02:00:00Z,25.4220,-80.9420,1.0,23.01,11111222 
ENP,ioos.station.NOAA.NDBC:CANF1:1,2019-02-12T03:00:00Z,25.4220,-80.9420,1.0,22.97,11111222 
ENP,ioos.station.NOAA.NDBC:CANF1:1,2019-02-12T04:00:00Z,25.4220,-80.9420,1.0,22.84,11111222 
ENP,ioos.station.NOAA.NDBC:CANF1:1,2019-02-12T05:00:00Z,25.4220,-80.9420,1.0,22.78,11111222 
ENP,ioos.station.NOAA.NDBC:CANF1:1,2019-02-12T06:00:00Z,25.4220,-80.9420,1.0,22.76,11111222 
ENP,ioos.station.NOAA.NDBC:CANF1:1,2019-02-12T07:00:00Z,25.4220,-80.9420,1.0,22.73,11111222 
ENP,ioos.station.NOAA.NDBC:CANF1:1,2019-02-12T08:00:00Z,25.4220,-80.9420,1.0,22.68,11111222 
ENP,ioos.station.NOAA.NDBC:CANF1:1,2019-02-12T09:00:00Z,25.4220,-80.9420,1.0,22.6,11111222 
ENP,ioos.station.NOAA.NDBC:CANF1:1,2019-02-12T10:00:00Z,25.4220,-80.9420,1.0,22.54,11111222 
ENP,ioos.station.NOAA.NDBC:CANF1:1,2019-02-12T11:00:00Z,25.4220,-80.9420,1.0,22.5,11111222 
ENP,ioos.station.NOAA.NDBC:CANF1:1,2019-02-12T12:00:00Z,25.4220,-80.9420,1.0,22.5,11111222 
ENP,ioos.station.NOAA.NDBC:CANF1:1,2019-02-12T13:00:00Z,25.4220,-80.9420,1.0,22.42,11111222 
ENP,ioos.station.NOAA.NDBC:CANF1:1,2019-02-12T14:00:00Z,25.4220,-80.9420,1.0,22.43,11111222 